AEROCUBE 8D

Last updated on Fri Jul 10 2026 00:03:49 GMT+0000 (Coordinated Universal Time)

1 41852U 16067E 26189.61813817 .00004874 00000+0 20032-3 0 9993 2 41852 98.0658 61.4206 0004878 72.9126 287.2644 15.24707647529339
UTC large
Height (km)
Speed (km/s)
/
Latitude / Longitude
Inclination (degrees)
Orbital Period (minutes)
Azimuth
Elevation
Range (km)
Doppler Factor

Next 0 passes for location: London (51.5072 / 0.1276)

No passes found over London.
AEROCUBE 8D